Regional Weather Roundup
Issued by NWS Charleston, WV

Home | Current Version | Previous Version | Text Only | Print | Product List | Glossary Off
Versions: 1 2 3 4 5 6 7 8 9 10 11 12 13 14 15 16 17 18 19 20 21 22 23 24 25 26 27 28 29 30 31 32 33 34 35 36 37 38 39 40 41 42 43 44 45 46 47 48 49 50

966
ASUS41 KRLX 130310
RWRRLX
West Virginia Regional Weather Roundup
National Weather Service Charleston WV
1000 PM EST FRI FEB 12 2016

Note: "fair" indicates few or no clouds below 12,000 feet with no
significant weather and/or obstructions to visibility.

WVZ003-130400-
Northern Panhandle of West Virginia

CITY           SKY/WX    TMP DP  RH WIND       PRES   REMARKS
WHEELING       CLOUDY    19  11  70 W15G24    30.00R WCI   5
$$

WVZ009-130400-
Northwest West Virginia

CITY           SKY/WX    TMP DP  RH WIND       PRES   REMARKS
PARKERSBURG    LGT SNOW  22  16  78 NW20G31   30.13R WCI   7
$$

WVZ006-130400-
Western West Virginia

CITY           SKY/WX    TMP DP  RH WIND       PRES   REMARKS
HUNTINGTON     CLOUDY    27  15  61 NW9G18    30.15R
$$

WVZ015-130400-
West Central West Virginia

CITY           SKY/WX    TMP DP  RH WIND       PRES   REMARKS
CHARLESTON     MOCLDY    27  18  69 W9G16     30.11R
$$

WVZ022-031-130400-
North Central West Virginia

CITY           SKY/WX    TMP DP  RH WIND       PRES   REMARKS
CLARKSBURG     FLURRIES  21  17  84 W9        30.01S
MORGANTOWN     FLURRIES  20  12  71 SW7       30.00S
$$

WVZ025-035-042-045-130400-
Southern West Virginia

CITY           SKY/WX    TMP DP  RH WIND       PRES   REMARKS
BECKLEY        LGT SNOW  22  17  81 W18G25    29.99R WCI   7
LOGAN          LGT SNOW  27  18  69 W13       30.08R
BLUEFIELD      LGT SNOW  22  17  81 NW10G21   29.98R
LEWISBURG      FLURRIES  26  19  76 W8        29.97R
$$

WVZ047-130400-
Northern Mountains of West Virginia

CITY           SKY/WX    TMP DP  RH WIND       PRES   REMARKS
ELKINS         LGT SNOW  20  12  71 W17G25    29.97R WCI   5
$$

WVZ052-130400-
Eastern Panhandle of West Virginia

CITY           SKY/WX    TMP DP  RH WIND       PRES   REMARKS
MARTINSBURG    CLOUDY    25  15  66 W13       29.98F
PETERSBURG     FLURRIES  26  14  60 CALM      29.99S
$$




USA.gov is the U.S. government's official web portal to all federal, state and local government web resources and services.